STARLINK-3137 (49449 NORAD) Tracking and Keplerian Element Data

This shows tracking and keplerian element data for the satellite.

Feedback or suggestion? Click here.




ElementValue
Catalog49449
NameSTARLINK-3137
Epoch Orbit486
Epoch Day340.25001157
Epoch Year2021
RAAN20.5607
Inclination53.2186
Eccentricity0.0002002
Argument of Perigee30.5079
Mean Anonmoly140.5904
Mean Motion15.73251868
Decay Rate-0.00022321
L11 49449U 21104AT 21340.25001157 -.00022321 00000+0 -15467-3 0 9996
L22 49449 53.2186 20.5607 0002002 30.5079 140.5904 15.73251868 4862

Live tracking and technical data element details for STARLINK-3137 (NORAD 49449). STARLINK-3137 can be tracked NOW for your location showing map with azimuth and elevation plus other details from your city location.

Track the satellite on the map from your city or location and see movement details for azimuth, elevation, latitude, longitude, range, height, and movement on the map or in text.







IsCatalogInMostPopularTable: catalog: 49449, numindb: 1
Update: records affected: 1



GetName: 49449 STARLINK-3137

Hit Count: updated at: Wed, 08 Dec 2021 16:30:11 GMT